Weather in Issa

Russia / Pskov Oblast     56°54′58″N   28°40′33″E
temp.,
°C
wind,
m/s
gust,
m/s
humid.,
%
clouds,
%
prec.,
mm/h
press.,
hPa
HPBL,
m
17 may, mon
mon1700:00+12se249497 0.0 101076
03:00+11ese389551 0.0 1010168
06:00+13se31092100 0.0 1009253
09:00+18se4871100 0.1 1009594
12:00+21se4859100 1.3 10081688
15:00+19se3682100 2.5 1007474
18:00+15wnw2695100 1.3 1005206
21:00+14wsw4699100 5.1 1004315
18 may, tue
tue1800:00+12n2699100 0.6 1003226
03:00+13nw2499100 0.9 1003181
06:00+13nw1299100 0.4 1002145
09:00+14nw1198100 0.7 1003154
12:00+16ne1297100 1.0 1003241
15:00+20se2687100 1.9 1002652
18:00+19se3889100 1.8 1001621
21:00+15ese31096100 3.0 1001322
19 may, wed
wed1900:00+15e2797100 0.0 1000205
03:00+15se3997100 0.2 999365
06:00+14sse2798100 0.8 999288
09:00+17sse478537 0.9 1001683
12:00+18sse5974100 0.1 10021001
15:00+16ssw3793100 1.1 1003528
18:00+13wsw4690100 0.8 1004428
21:00+11wsw3693100 0.8 1006528
20 may, thu
thu2000:00+10w3694100 0.1 1007378
03:00+10wnw3893100 0.1 1008506
06:00+9nw2893100 0.0 1009378
09:00+10nnw3891100 0.7 1009469
12:00+9nw3996100 2.1 1009547
15:00+9nnw51294100 2.8 1008635
18:00+9nnw51392100 0.1 1007801
21:00+9nnw61593100 1.6 1005984
21 may, fri
fri2100:00+9nnw61494100 5.3 1004991
03:00+8nw81597100 30.1 1003977
06:00+9nnw71495100 1.1 10021108
09:00+8wnw61397100 2.1 10031030
12:00+8wnw61397100 0.9 10041007
15:00+9wnw51295100 2.7 1006895
18:00+10wnw31091100 0.9 1007589
21:00+10w41184100 0.9 1008447